N5AET-1 Weather Reports


Display with metric or nautical units.
time (UTC)temp
F
wind
direction
speed
MPH
gust
MPH
rain 1hr
in
rain 24hr
in
rain mn
in
humidity
%
barometer
mb
20260902203556 98 81 3.0 10.0 0.00 0.00 0.00 43 987.1
20260902202516 98 0.0 0.0 0.00 0.00 0.00 43 987.2
20260902201516 97 339 1.0 3.0 0.00 0.00 0.00 44 987.3
20260902200516 97 78 0.0 3.0 0.00 0.00 0.00 44 987.5
20260902195536 97 0.0 0.0 0.00 0.00 0.00 44 987.7
20260902194536 97 321 0.0 2.0 0.00 0.00 0.00 44 987.9
20260902193536 96 78 1.0 6.0 0.00 0.00 0.00 44 988.0
20260902192536 96 97 0.0 4.0 0.00 0.00 0.00 44 988.2
20260902191516 96 70 0.0 2.0 0.00 0.00 0.00 45 988.4
20260902190516 95 102 3.0 4.0 0.00 0.00 0.00 45 988.4
20260902185516 95 81 2.0 5.0 0.00 0.00 0.00 47 988.6
20260902184536 95 80 0.0 2.0 0.00 0.00 0.00 50 988.7
20260902183515 95 0.0 0.0 0.00 0.00 0.00 50 988.8
20260902182516 95 56 0.0 2.0 0.00 0.00 0.00 50 989.2
20260902181516 95 69 3.0 7.0 0.00 0.00 0.00 50 989.3
20260902180516 93 0.0 0.0 0.00 0.00 0.00 53 989.5
20260902175536 94 0.0 0.0 0.00 0.00 0.00 53 989.7
20260902174516 93 1 0.0 1.0 0.00 0.00 0.00 53 989.9
20260902173516 94 159 0.0 2.0 0.00 0.00 0.00 52 990.1
20260902172516 93 135 0.0 4.0 0.00 0.00 0.00 54 990.2
20260902171516 92 76 1.0 4.0 0.00 0.00 0.00 55 990.4
20260902170516 91 0.0 0.0 0.00 0.00 0.00 57 990.6
20260902165516 91 0.0 3.0 0.00 0.00 0.00 55 990.7
20260902164516 91 72 1.0 4.0 0.00 0.00 0.00 56 990.8
20260902163515 91 184 0.0 1.0 0.00 0.00 0.00 57 990.8
20260902162516 90 0.0 0.0 0.00 0.00 0.00 60 990.8
20260902161516 90 95 0.0 2.0 0.00 0.00 0.00 60 990.9
20260902160536 90 80 2.0 4.0 0.00 0.00 0.00 59 990.9
20260902155516 90 0.0 0.0 0.00 0.00 0.00 62 990.9
20260902154516 89 175 0.0 2.0 0.00 0.00 0.00 63 991.0
20260902153516 89 204 1.0 3.0 0.00 0.00 0.00 64 991.0
20260902152515 87 0.0 0.0 0.00 0.00 0.00 67 990.9
20260902151515 86 0.0 0.0 0.00 0.00 0.00 69 990.9
20260902150516 86 0.0 1.0 0.00 0.00 0.00 68 990.8
20260902145556 87 158 0.0 2.0 0.00 0.00 0.00 67 990.8
20260902144516 86 0.0 0.0 0.00 0.00 0.00 70 990.7
20260902143515 85 0.0 2.0 0.00 0.00 0.00 71 990.8
20260902142536 85 0.0 0.0 0.00 0.00 0.00 73 990.7
20260902141516 84 0.0 2.0 0.00 0.00 0.00 74 990.7
20260902140516 84 0.0 2.0 0.00 0.00 0.00 74 990.7
20260902135515 83 0.0 1.0 0.00 0.00 0.00 76 990.7
20260902134516 82 0.0 2.0 0.00 0.00 0.00 78 990.6
20260902133515 81 0.0 0.0 0.00 0.00 0.00 79 990.6
20260902132516 81 0.0 6.0 0.00 0.00 0.00 79 990.6
20260902131517 80 82 0.0 1.0 0.00 0.00 0.00 79 990.7
20260902130515 80 0.0 0.0 0.00 0.00 0.00 80 990.6
20260902125535 80 0.0 0.0 0.00 0.00 0.00 80 990.4
20260902124516 80 0.0 0.0 0.00 0.00 0.00 80 990.3
20260902123536 79 0.0 0.0 0.00 0.00 0.00 81 990.2
20260902122515 77 0.0 0.0 0.00 0.00 0.00 85 990.1
20260902121516 77 0.0 0.0 0.00 0.00 0.00 85 990.1
20260902120516 77 0.0 0.0 0.00 0.00 0.00 85 990.1
20260902115516 77 0.0 0.0 0.00 0.00 0.00 85 990.0
20260902114515 77 0.0 0.0 0.00 0.00 0.00 84 990.1
20260902113516 77 0.0 0.0 0.00 0.00 0.00 84 990.2
20260902112515 77 0.0 0.0 0.00 0.00 0.00 83 990.2
20260902111516 78 0.0 0.0 0.00 0.00 0.00 82 990.1
20260902110516 78 0.0 0.0 0.00 0.00 0.00 81 990.1
20260902105515 78 0.0 0.0 0.00 0.00 0.00 81 990.1
20260902104516 78 0.0 0.0 0.00 0.00 0.00 81 990.0
20260902103515 78 0.0 0.0 0.00 0.00 0.00 80 990.0
20260902102515 78 0.0 0.0 0.00 0.00 0.00 79 990.0
20260902101516 79 0.0 0.0 0.00 0.00 0.00 79 990.0
20260902100516 79 0.0 0.0 0.00 0.00 0.00 78 990.0
20260902095516 79 0.0 0.0 0.00 0.00 0.00 77 990.0
20260902094516 79 0.0 0.0 0.00 0.00 0.00 76 990.0
20260902093515 80 0.0 0.0 0.00 0.00 0.00 75 989.9
20260902092516 80 0.0 0.0 0.00 0.00 0.00 74 989.9
20260902091516 81 0.0 0.0 0.00 0.00 0.00 73 989.9
20260902090516 81 0.0 0.0 0.00 0.00 0.00 71 989.9
20260902085515 82 0.0 0.0 0.00 0.00 0.00 70 989.8
20260902084516 82 0.0 0.0 0.00 0.00 0.00 69 989.8
20260902083516 83 0.0 0.0 0.00 0.00 0.00 68 989.8
20260902082535 83 0.0 0.0 0.00 0.00 0.00 68 989.7
20260902081515 83 0.0 0.0 0.00 0.00 0.00 67 989.8
20260902080515 83 0.0 0.0 0.00 0.00 0.00 67 989.9
20260902075516 83 0.0 0.0 0.00 0.00 0.00 67 989.9
20260902074535 83 0.0 0.0 0.00 0.00 0.00 67 989.9
20260902073515 84 0.0 0.0 0.00 0.00 0.00 66 989.9
20260902072516 84 0.0 1.0 0.00 0.00 0.00 67 989.9
20260902071516 84 0.0 0.0 0.00 0.00 0.00 67 989.9
20260902070515 84 132 0.0 2.0 0.00 0.00 0.00 67 989.9
20260902065516 84 0.0 0.0 0.00 0.00 0.00 67 989.8
20260902064516 84 0.0 2.0 0.00 0.00 0.00 67 989.8
20260902063515 85 0.0 0.0 0.00 0.00 0.00 66 989.8
20260902062516 85 147 0.0 2.0 0.00 0.00 0.00 65 989.8
20260902061515 85 0.0 0.0 0.00 0.00 0.00 65 989.7
20260902060515 85 145 1.0 3.0 0.00 0.00 0.00 65 989.8
20260902055536 86 0.0 0.0 0.00 0.00 0.00 65 989.7
20260902054516 86 0.0 0.0 0.00 0.00 0.00 64 989.7
20260902053515 86 160 1.0 4.0 0.00 0.00 0.00 63 989.7
20260902052515 86 151 0.0 2.0 0.00 0.00 0.00 63 989.7
20260902051515 87 0.0 0.0 0.00 0.00 0.00 62 989.7
20260902050515 87 127 1.0 4.0 0.00 0.00 0.00 62 989.7
20260902045516 87 0.0 0.0 0.00 0.00 0.00 61 989.7
20260902044516 88 0.0 0.0 0.00 0.00 0.00 60 989.7
20260902043516 88 0.0 0.0 0.00 0.00 0.00 59 989.7
20260902042516 88 149 2.0 3.0 0.00 0.00 0.00 58 989.7
20260902041556 89 154 0.0 5.0 0.00 0.00 0.00 57 989.5
20260902040516 89 140 3.0 5.0 0.00 0.00 0.00 57 989.3
20260902035516 88 78 1.0 4.0 0.00 0.00 0.00 58 989.3
20260902034536 88 0.0 0.0 0.00 0.00 0.00 58 989.2
20260902033516 89 0.0 0.0 0.00 0.00 0.00 57 989.1
20260902032516 89 0.0 0.0 0.00 0.00 0.00 56 989.0
20260902031516 90 0.0 0.0 0.00 0.00 0.00 55 988.9
20260902030556 90 0.0 0.0 0.00 0.00 0.00 55 988.8
20260902025516 90 0.0 0.0 0.00 0.00 0.00 55 988.8
20260902024516 90 0.0 0.0 0.00 0.00 0.00 54 988.6
20260902023516 90 0.0 0.0 0.00 0.00 0.00 54 988.5
20260902022516 90 0.0 0.0 0.00 0.00 0.00 53 988.3
20260902021516 90 0.0 0.0 0.00 0.00 0.00 53 988.2
20260902020516 91 0.0 0.0 0.00 0.00 0.00 52 988.1
20260902015536 91 0.0 0.0 0.00 0.00 0.00 51 988.0
20260902014516 91 0.0 0.0 0.00 0.00 0.00 51 987.8
20260902013516 91 0.0 0.0 0.00 0.00 0.00 51 987.7
20260902012516 92 0.0 0.0 0.00 0.00 0.00 49 987.6
20260902011516 92 0.0 0.0 0.00 0.00 0.00 48 987.5
20260902010516 93 0.0 0.0 0.00 0.00 0.00 46 987.4
20260902005516 94 0.0 0.0 0.00 0.00 0.00 45 987.4
20260902004516 95 0.0 0.0 0.00 0.00 0.00 44 987.4
20260902003536 96 0.0 0.0 0.00 0.00 0.00 43 987.5
20260902002516 97 0.0 0.0 0.00 0.00 0.00 42 987.5
20260902001516 97 172 0.0 1.0 0.00 0.00 0.00 41 987.6
20260902000516 96 0.0 0.0 0.00 0.00 0.00 42 987.7
20260901235556 97 0.0 1.0 0.00 0.00 0.00 43 987.7
20260901234516 97 0.0 0.0 0.00 0.00 0.00 42 987.7
20260901233536 97 157 0.0 1.0 0.00 0.00 0.00 42 987.8
20260901232516 97 0.0 0.0 0.00 0.00 0.00 42 987.9
20260901231536 97 0.0 1.0 0.00 0.00 0.00 42 987.9
20260901230516 96 151 1.0 2.0 0.00 0.00 0.00 43 987.9
20260901225536 96 161 0.0 2.0 0.00 0.00 0.00 43 988.0
20260901224516 96 143 1.0 3.0 0.00 0.00 0.00 43 988.0
20260901223516 97 155 2.0 4.0 0.00 0.00 0.00 42 988.0
20260901222516 98 150 1.0 4.0 0.00 0.00 0.00 41 987.9
20260901221516 98 162 0.0 2.0 0.00 0.00 0.00 41 987.9
20260901220516 98 0.0 0.0 0.00 0.00 0.00 40 987.8
20260901215516 98 154 0.0 2.0 0.00 0.00 0.00 41 988.0
20260901214516 98 135 1.0 2.0 0.00 0.00 0.00 40 988.2
20260901213516 99 127 0.0 2.0 0.00 0.00 0.00 39 988.2
20260901212536 98 75 2.0 11.0 0.00 0.00 0.00 39 988.3
20260901211516 98 112 0.0 4.0 0.00 0.00 0.00 40 988.5
20260901210516 99 106 0.0 4.0 0.00 0.00 0.00 40 988.6
20260901205516 97 80 1.0 4.0 0.00 0.00 0.00 42 988.6
20260901204516 97 88 5.0 9.0 0.00 0.00 0.00 43 988.7